Flag for India Weather past 2 weeks in Karaikudi, Tamil Nadu, India

Now
84 °F

Passing clouds.


Feels Like: 87 °F
Forecast: 80 / 98 °F
Wind: 13 mph from West

Location: Tiruchchirapalli

Current Time: Jul 29, 2014 at 2:41:19 AM

Latest Report: Jul 29, 2014 at 1:40 AM


Visibility: 4 mi

Pressure: 29.74 "Hg

Humidity: 58%

Dew point: 68 °F

Location of KaraikudiLocation

Historic Weather in Karaikudi — Graph

°F

Karaikudi temperature yesterday

Maximum temperature yesterday: 100 °F (at 1:40 PM)
Minimum temperature yesterday: 82 °F (at 5:40 AM)
Average temperature yesterday: 90 °F

Past Weeks' High & Low Weather Summary

 TemperatureHumidityPressure
High102 °F (Jul 26, 1:40 PM)70% (Jul 14, 12:40 AM)29.83 "Hg (Jul 14, 12:40 AM)
Low81 °F (Jul 14, 12:40 AM)31% (Jul 26, 1:40 PM)29.62 "Hg (Jul 14, 3:40 PM)
Average89 °F53%29.73 "Hg
* Reported Jul 14 12:40 AM — Jul 29 12:40 AM, Karaikudi, Weather by CustomWeather, © 2014

Note: Actual official high and low records may vary slightly from our data, if they occured in-between our weather recording intervals... More about our weather records

Advertising

Karaikudi weather history for previous 24 hours

 ConditionsComfort  
Time TempWeatherWind HumidityBarometerVisibility
12:40 AM
Jul 29
84 °FPassing clouds.14 mph58%29.74 "Hg4 mi
11:40 PM
Jul 28
86 °FPassing clouds.17 mph55%29.77 "Hg4 mi
10:40 PM86 °FPassing clouds.14 mph52%29.77 "Hg4 mi
9:40 PM86 °FPassing clouds.14 mph52%29.77 "Hg4 mi
8:40 PM88 °FPassing clouds.15 mph49%29.74 "Hg4 mi
7:40 PM88 °FOvercast.12 mph52%29.71 "Hg4 mi
6:40 PM91 °FMore clouds than sun.13 mph49%29.68 "Hg4 mi
5:40 PM95 °FMore clouds than sun.13 mph41%29.68 "Hg4 mi
4:40 PM95 °FBroken clouds.24 mph41%29.65 "Hg4 mi
3:40 PM97 °FBroken clouds.15 mph39%29.65 "Hg5 mi
2:40 PM100 °FScattered clouds.15 mph35%29.68 "Hg5 mi
1:40 PM100 °FScattered clouds.18 mph37%29.68 "Hg5 mi
12:40 PM99 °FScattered clouds.18 mph39%29.71 "Hg4 mi
11:40 AM97 °FScattered clouds.20 mph42%29.77 "Hg4 mi
10:40 AM93 °FPassing clouds.18 mph47%29.77 "Hg4 mi
9:40 AM90 °FPassing clouds.20 mph52%29.80 "Hg4 mi
8:40 AM88 °FPassing clouds.16 mph55%29.80 "Hg4 mi
7:40 AM84 °FPartly sunny.12 mph62%29.77 "Hg4 mi
6:40 AM82 °FScattered clouds.12 mph66%29.77 "Hg4 mi
5:40 AM82 °FPassing clouds.14 mph70%29.74 "Hg4 mi
2:40 AM84 °FPassing clouds.16 mph66%29.74 "Hg4 mi
Weather by CustomWeather, © 2014

See weather overviewHow to use our weather pages